This is the latest recevied weather packets stored in our database for station/object NN3A-3. If no packets are shown the sender has not sent any weather packets the latest 10 day(s).
| Time | Temp. | Humidity | Pressure | Rain* | Wind** | Luminosity | Snow |
|---|---|---|---|---|---|---|---|
| 1777497136 | 13.89° C | 100% | 1005.9 hPa | 4.57 mm | - | - | - |
| 1777496835 | 14.44° C | 100% | 1005.9 hPa | 4.57 mm | - | - | - |
| 1777496537 | 15° C | 100% | 1005.9 hPa | 4.57 mm | - | - | - |
| 1777496235 | 13.89° C | 100% | 1005.6 hPa | 4.57 mm | - | - | - |
| 1777495936 | 13.89° C | 100% | 1005.6 hPa | 4.57 mm | - | - | - |
| 1777494436 | 14.44° C | 99% | 1005.9 hPa | 0.25 mm | - | - | - |
| 1777494136 | 14.44° C | 99% | 1005.9 hPa | 0.25 mm | - | - | - |
| 1777493837 | 15° C | 99% | 1005.9 hPa | 0.25 mm | - | - | - |
| 1777493237 | 15° C | 99% | 1005.9 hPa | 0.25 mm | - | - | - |
| 1777492937 | 15° C | 99% | 1006.2 hPa | 0.25 mm | - | - | - |
| 1777492637 | 15° C | 99% | 1006.6 hPa | 0.25 mm | - | - | - |
| 1777492337 | 14.44° C | 99% | 1006.2 hPa | 0.25 mm | - | - | - |
| 1777491738 | 15° C | 99% | 1006.2 hPa | 0.25 mm | - | - | - |
| 1777491438 | 15° C | 99% | 1006.2 hPa | 0.25 mm | - | - | - |
| 1777491138 | 15.56° C | 99% | 1006.2 hPa | 0.25 mm | - | - | - |
| 1777490838 | 15.56° C | 99% | 1006.6 hPa | 0.25 mm | - | - | - |
| 1777490539 | 15.56° C | 99% | 1006.6 hPa | 0.25 mm | - | - | - |
| 1777489339 | 15° C | 99% | 1006.9 hPa | 0.25 mm | - | - | - |
| 1777488739 | 14.44° C | 99% | 1007.2 hPa | 0.25 mm | - | - | - |
| 1777488439 | 15.56° C | 99% | 1007.6 hPa | 0.25 mm | - | - | - |
| 1777488139 | 15° C | 99% | 1007.6 hPa | 0.25 mm | - | - | - |
| 1777487540 | 15° C | 99% | 1007.6 hPa | 0.25 mm | - | - | - |
| 1777487240 | 15.56° C | 99% | 1007.6 hPa | 0.25 mm | - | - | - |
| 1777486940 | 16.11° C | 99% | 1007.6 hPa | 0.25 mm | - | - | - |
| 1777486640 | 15.56° C | 99% | 1007.9 hPa | 0.25 mm | - | - | - |
* Rain latest hour (hover to see other rain measurements)
** Current wind speed in m/s (hover to see current wind gust speed)